CAPE
0 0 0 0 0 0 0 0 0 360 294 320 360 326 160 147 322 157 454 545 650 804 749 363 259 298 307 321 333 347 360 409 417 324 175 73 0 0 0 0 0 0 0 0 0 0 0 0 0
0 0 0 0 0 0 0 0 0 390 91 3 0 20 50 6 236 489 443 789 828 904 765 562 307 345 350 400 434 476 520 546 454 256 68 0 0 0 0 0 0 0 0 0 0 0 0 0 0
0 0 0 0 0 0 0 0 267 184 38 6 0 1 1 1 102 256 636 907 1005 1050 789 779 378 353 360 423 493 560 575 537 381 158 29 0 0 0 0 0 0 0 0 0 0 0 0 0 0
0 0 0 0 0 0 0 162 283 194 85 61 0 0 0 0 9 300 857 834 871 888 1053 626 458 390 429 483 636 644 605 529 322 170 103 19 0 0 0 0 0 0 0 0 0 0 0 0 0
0 0 0 0 0 0 0 360 358 234 69 65 41 4 24 230 525 667 759 615 422 939 1162 713 528 461 515 664 814 691 601 500 298 216 113 21 0 0 0 0 0 0 0 0 0 0 0 0 0
0 0 0 0 0 0 0 290 530 116 19 95 124 144 213 1074 978 1011 1062 1037 765 939 1043 940 575 580 672 859 864 653 636 474 267 172 78 3 0 0 0 0 0 0 0 0 0 0 0 0 0
0 0 0 0 4 32 32 398 270 2 97 123 297 364 909 1078 1133 1112 1144 978 928 1245 1248 957 812 720 815 964 794 676 484 307 172 103 23 0 0 0 0 0 0 0 0 0 0 0 0 0 0
0 0 0 8 87 301 336 50 0 0 112 388 632 399 802 1240 1196 1205 1210 1262 1342 1258 1214 1120 963 1042 998 963 787 679 380 201 146 61 8 0 0 0 0 0 0 0 0 0 0 0 0 0 0
0 0 0 80 208 92 83 25 32 47 178 432 221 760 1030 1329 1298 1256 1064 1152 1148 1112 1111 1141 1044 956 890 851 860 538 279 162 50 58 19 40 92 108 94 16 7 2 1 0 0 0 0 0 0
0 0 0 46 148 48 5 6 62 162 366 222 916 1292 1529 1559 1554 1367 1315 1073 1069 1101 1061 1088 1001 968 965 650 566 423 163 115 145 320 363 255 486 426 221 111 27 0 0 0 0 0 0 0 0
0 0 0 97 42 3 0 18 54 249 413 329 811 1356 1549 1425 1431 1310 997 1214 960 941 917 956 857 867 882 508 327 67 49 142 384 628 669 643 747 688 440 174 110 113 0 20 0 0 0 0 0
0 0 0 29 92 88 31 33 278 350 139 268 1124 1520 1435 1236 1336 1075 781 481 540 676 716 836 813 930 638 297 65 65 134 322 543 707 890 836 735 679 315 147 91 103 34 0 0 0 0 0 0
0 0 0 0 0 46 48 211 272 28 344 925 1182 1412 1348 983 786 471 382 393 395 352 563 703 640 535 501 225 129 221 441 631 747 857 714 450 457 486 359 195 53 0 0 0 0 0 0 0 0
0 0 0 0 0 0 59 89 90 15 568 844 1165 1128 1263 1085 653 425 294 226 246 324 647 732 521 396 235 150 270 385 141 38 105 135 97 45 1 13 220 19 0 0 0 0 0 0 0 0 0
0 0 0 0 0 0 1 0 0 7 318 870 857 1030 1186 990 642 298 190 125 103 397 727 707 494 293 314 349 10 0 0 4 14 41 43 9 0 0 0 0 0 0 0 0 0 0 0 0 0
0 0 0 0 0 0 0 0 0 57 273 810 859 841 735 432 308 195 210 156 71 335 721 733 492 391 319 0 0 1 11 2 0 0 0 0 0 0 0 0 0 0 0 0 0 0 0 0 0
0 0 0 0 0 0 0 0 0 175 306 387 573 600 499 280 225 271 275 179 183 494 879 827 687 639 279 0 0 0 1 0 0 0 0 0 0 0 0 0 0 0 0 0 0 0 0 0 0
0 0 0 0 0 0 0 0 0 216 325 314 333 390 373 323 228 194 315 429 617 704 877 970 669 480 229 25 0 0 0 0 0 0 0 0 0 0 0 0 0 0 0 0 0 0 0 0 0
0 0 0 0 0 21 0 0 0 55 311 362 348 340 330 299 137 308 449 580 680 730 760 852 592 423 287 55 0 0 0 0 0 0 0 0 0 0 0 0 0 0 0 0 0 0 0 0 0
0 0 4 0 0 40 39 58 0 0 115 323 418 422 406 232 285 345 591 733 835 835 803 669 505 373 155 12 0 0 0 0 0 0 0 0 0 0 0 0 0 0 0 0 0 0 0 0 1
2 23 18 15 0 25 64 72 43 2 0 0 87 222 240 288 324 540 583 529 404 341 264 82 8 0 0 0 0 0 0 0 0 0 0 0 0 0 0 0 0 0 0 0 0 0 0 0 0
70 1 1 3 1 11 14 52 83 59 34 56 42 121 154 260 246 49 1 3 0 0 0 0 0 0 0 0 0 0 0 0 0 0 0 0 0 0 0 0 0 0 0 0 0 0 0 0 0
71 1 50 24 53 24 2 12 137 77 91 96 80 108 26 0 0 0 0 0 0 0 0 0 0 0 0 0 0 0 0 0 0 0 0 0 0 0 0 0 0 0 0 0 0 0 0 0 0
0 8 15 19 21 1 38 17 48 121 99 91 66 0 0 0 0 0 0 0 0 0 0 0 0 0 0 0 0 0 0 0 0 0 0 0 0 0 0 0 0 0 0 2 0 0 0 0 0
21 27 16 2 6 16 2 0 6 37 4 108 61 0 0 0 0 0 0 0 0 0 0 0 0 0 0 0 0 0 0 0 0 0 0 0 0 0 0 0 0 0 6 1 2 0 0 0 0
46 50 11 0 24 2 0 0 4 0 0 31 25 0 0 0 0 0 0 0 0 0 0 0 0 0 0 0 0 0 0 0 0 0 0 0 0 0 0 0 0 3 12 2 0 8 12 4 2
0 0 4 3 0 0 0 1 0 0 0 0 0 0 0 0 0 0 0 0 0 0 0 0 0 0 0 0 0 0 0 0 0 0 0 0 0 0 0 0 7 19 14 13 17 9 9 7 1
0 0 0 0 0 0 0 0 0 0 0 0 0 0 0 0 0 0 0 0 0 0 0 0 0 0 0 0 0 0 0 0 0 0 0 0 0 0 0 1 21 35 19 16 11 19 10 2 1
0 0 0 0 0 0 0 0 0 0 0 0 0 0 0 0 0 0 0 0 0 0 0 0 0 0 0 0 0 0 0 0 0 0 0 0 0 0 0 0 14 24 21 8 22 15 4 4 6
0 0 0 0 0 0 0 0 0 0 0 0 0 0 0 0 0 0 0 0 0 0 0 0 0 0 0 0 0 0 0 0 0 0 0 0 0 0 0 0 8 22 27 28 14 11 2 3 6
CIN
-0 -0 -0 -0 -0 -0 -0 -0 -0 -1 -11 -8 -4 -2 -18 -23 -5 -12 -5 -1 -2 -0 -1 -53 -68 -75 -91 -94 -98 -91 -81 -66 -58 -63 -101 -140 -0 -0 -0 -0 -0 -0 -0 -0 -0 -0 -0 -0 -0
-0 -0 -0 -0 -0 -0 -0 -0 -0 -4 -57 -63 -6 -76 -24 -88 -24 -1 -2 -0 -0 -5 -1 -7 -66 -70 -85 -82 -76 -57 -44 -36 -38 -74 -139 -0 -0 -0 -0 -0 -0 -0 -0 -0 -0 -0 -0 -0 -0
-0 -0 -0 -0 -0 -0 -0 -0 -4 -15 -84 -70 -0 -75 -28 -89 -33 -42 -32 -7 -0 -1 -1 -3 -65 -67 -82 -71 -51 -45 -39 -38 -58 -114 -161 -0 -0 -0 -0 -0 -0 -0 -0 -0 -0 -0 -0 -0 -0
-0 -0 -0 -0 -0 -0 -0 -4 -1 -22 -60 -63 -0 -0 -2 -3 -141 -55 -0 -35 -3 -1 -0 -54 -50 -56 -64 -54 -36 -37 -36 -43 -83 -120 -152 -219 -0 -0 -0 -0 -0 -0 -0 -0 -0 -0 -0 -0 -0
-0 -0 -0 -0 -0 -0 -0 -1 -4 -3 -44 -43 -50 -44 -62 -17 -12 -25 -18 -22 -1 -1 -0 -24 -32 -36 -45 -32 -22 -21 -33 -41 -82 -104 -161 -235 -0 -0 -0 -0 -0 -0 -0 -0 -0 -0 -0 -0 -0
-0 -0 -0 -0 -1 -0 -0 -3 -2 -8 -21 -61 -21 -26 -10 -0 -0 -0 -5 -0 -11 -1 -0 -0 -19 -31 -27 -18 -11 -28 -27 -29 -79 -127 -176 -90 -0 -0 -0 -0 -0 -0 -0 -0 -0 -0 -0 -0 -0
-0 -0 -0 -0 -2 -16 -42 -7 -30 -11 -21 -16 -37 -8 -7 -0 -0 -0 -0 -0 -1 -0 -0 -1 -5 -9 -11 -6 -9 -21 -36 -74 -130 -144 -192 -0 -0 -0 -0 -0 -0 -0 -0 -0 -0 -0 -0 -0 -0
-0 -0 -0 -2 -3 -3 -2 -71 -0 -0 -25 -23 -6 -35 -15 -0 -0 -1 -0 -0 -0 -0 -0 -0 -6 -2 -2 -0 -6 -17 -44 -90 -88 -159 -217 -0 -0 -0 -0 -0 -0 -0 -0 -0 -0 -0 -0 -0 -0
-0 -0 -0 -2 -4 -37 -63 -37 -55 -45 -16 -28 -75 -8 -12 -12 -1 -1 -0 -0 -0 -0 -0 -0 -0 -20 -2 -1 -2 -18 -53 -90 -148 -143 -181 -48 -53 -60 -74 -157 -168 -120 -58 -0 -0 -0 -0 -0 -0
-0 -0 -0 -4 -15 -47 -40 -24 -14 -46 -31 -72 -38 -15 -7 -1 -0 -1 -0 -0 -1 -0 -1 -0 -6 -5 -5 -1 -0 -2 -56 -54 -41 -3 -3 -3 -3 -6 -40 -69 -125 -0 -0 -0 -0 -0 -0 -0 -0
-0 -0 -0 -15 -19 -4 -0 -15 -27 -3 -10 -39 -32 -30 -11 -10 -3 -4 -5 -0 -4 -6 -4 -3 -6 -4 -2 -7 -27 -62 -65 -28 -5 -2 -0 -0 -0 -0 -0 -16 -23 -30 -0 -45 -0 -0 -0 -0 -0
-0 -0 -0 -12 -17 -12 -7 -30 -14 -3 -14 -28 -41 -42 -45 -40 -22 -11 -26 -32 -16 -14 -19 -18 -14 -1 -9 -49 -91 -97 -50 -19 -1 -1 -0 -0 -0 -1 -3 -5 -33 -34 -50 -0 -0 -0 -0 -0 -0
-0 -0 -0 -0 -0 -7 -31 -5 -1 -43 -45 -16 -39 -24 -35 -40 -24 -36 -35 -30 -36 -48 -36 -33 -33 -35 -34 -74 -83 -50 -13 -9 -19 -12 -46 -64 -32 -24 -7 -13 -32 -0 -0 -0 -0 -0 -0 -0 -0
-0 -0 -0 -0 -0 -0 -12 -28 -10 -50 -36 -22 -32 -14 -17 -27 -27 -36 -47 -45 -54 -49 -41 -42 -64 -76 -89 -81 -35 -18 -43 -120 -115 -115 -121 -188 -53 -98 -9 -34 -0 -0 -0 -0 -0 -0 -0 -0 -0
-0 -0 -0 -0 -0 -0 -17 -0 -0 -199 -77 -25 -23 -16 -13 -11 -26 -45 -51 -75 -76 -42 -30 -57 -92 -116 -87 -65 -90 -3 -10 -193 -281 -202 -202 -247 -5 -0 -0 -0 -0 -0 -0 -0 -0 -0 -0 -0 -0
-0 -0 -0 -0 -0 -0 -0 -0 -0 -190 -86 -24 -27 -43 -49 -75 -73 -125 -135 -111 -109 -68 -55 -81 -122 -108 -98 -0 -0 -57 -102 -105 -0 -0 -0 -0 -0 -0 -0 -0 -0 -0 -0 -0 -0 -0 -0 -0 -0
-0 -0 -0 -0 -0 -0 -0 -0 -0 -170 -70 -55 -38 -50 -72 -127 -138 -153 -155 -135 -102 -60 -47 -73 -87 -57 -86 -0 -0 -0 -86 -0 -0 -0 -0 -0 -0 -0 -0 -0 -0 -0 -0 -0 -0 -0 -0 -0 -0
-0 -0 -0 -0 -0 -0 -0 -0 -0 -146 -91 -78 -58 -69 -82 -107 -153 -223 -202 -176 -120 -94 -67 -50 -76 -90 -102 -127 -0 -0 -0 -0 -0 -0 -0 -0 -0 -0 -0 -0 -0 -0 -0 -0 -0 -0 -0 -0 -0
-0 -0 -0 -0 -0 -48 -0 -0 -0 -171 -111 -108 -98 -92 -84 -113 -223 -207 -202 -181 -143 -121 -92 -53 -66 -66 -53 -84 -0 -0 -0 -0 -0 -0 -0 -0 -0 -0 -0 -0 -0 -0 -0 -0 -0 -0 -0 -0 -0
-0 -0 -21 -0 -0 -72 -63 -73 -0 -0 -170 -124 -102 -108 -112 -196 -182 -205 -148 -107 -71 -67 -49 -47 -58 -44 -41 -56 -0 -0 -0 -0 -0 -0 -0 -0 -0 -0 -0 -0 -0 -0 -0 -0 -0 -0 -0 -0 -1
-28 -5 -29 -22 -0 -149 -59 -62 -127 -153 -0 -152 -233 -187 -196 -189 -185 -142 -123 -126 -138 -126 -119 -144 -73 -43 -0 -0 -0 -0 -0 -0 -0 -0 -0 -0 -0 -0 -0 -0 -0 -0 -0 -0 -0 -0 -0 -0 -0
-17 -27 -32 -98 -65 -11 -105 -5 -81 -188 -255 -272 -303 -247 -222 -208 -193 -241 -53 -48 -0 -0 -0 -0 -0 -0 -0 -0 -0 -0 -0 -0 -0 -0 -0 -0 -0 -0 -0 -0 -0 -0 -0 -0 -0 -0 -0 -0 -0
-42 -23 -72 -74 -29 -54 -3 -26 -67 -191 -167 -220 -250 -229 -258 -0 -0 -0 -0 -0 -0 -0 -0 -0 -0 -0 -0 -0 -0 -0 -0 -0 -0 -0 -0 -0 -0 -0 -0 -0 -0 -0 -0 -0 -0 -0 -0 -0 -0
-0 -126 -104 -87 -52 -10 -25 -47 -12 -91 -77 -160 -216 -0 -0 -0 -0 -0 -0 -0 -0 -0 -0 -0 -0 -0 -0 -0 -0 -0 -0 -0 -0 -0 -0 -0 -0 -0 -0 -0 -0 -0 -0 -1 -0 -0 -0 -0 -0
-92 -38 -16 -8 -26 -33 -81 -0 -43 -83 -57 -97 -179 -0 -0 -0 -0 -0 -0 -0 -0 -0 -0 -0 -0 -0 -0 -0 -0 -0 -0 -0 -0 -0 -0 -0 -0 -0 -0 -0 -0 -0 -0 -0 -7 -0 -0 -0 -0
-48 -28 -16 -0 -33 -5 -0 -0 -60 -0 -0 -138 -159 -0 -0 -0 -0 -0 -0 -0 -0 -0 -0 -0 -0 -0 -0 -0 -0 -0 -0 -0 -0 -0 -0 -0 -0 -0 -0 -0 -0 -0 -1 -0 -0 -2 -2 -1 -2
-0 -0 -50 -24 -0 -0 -0 -57 -0 -0 -0 -0 -0 -0 -0 -0 -0 -0 -0 -0 -0 -0 -0 -0 -0 -0 -0 -0 -0 -0 -0 -0 -0 -0 -0 -0 -0 -0 -0 -0 -1 -1 -0 -3 -2 -1 -1 -2 -1
-0 -0 -0 -0 -0 -0 -0 -0 -0 -0 -0 -0 -0 -0 -0 -0 -0 -0 -0 -0 -0 -0 -0 -0 -0 -0 -0 -0 -0 -0 -0 -0 -0 -0 -0 -0 -0 -0 -0 -0 -0 -0 -0 -1 -2 -1 -2 -1 -2
-0 -0 -0 -0 -0 -0 -0 -0 -0 -0 -0 -0 -0 -0 -0 -0 -0 -0 -0 -0 -0 -0 -0 -0 -0 -0 -0 -0 -0 -0 -0 -0 -0 -0 -0 -0 -0 -0 -0 -0 -1 -1 -1 -2 -1 -2 -3 -3 -3
-0 -0 -0 -0 -0 -0 -0 -0 -0 -0 -0 -0 -0 -0 -0 -0 -0 -0 -0 -0 -0 -0 -0 -0 -0 -0 -0 -0 -0 -0 -0 -0 -0 -0 -0 -0 -0 -0 -0 -0 -0 -1 -1 -1 -3 -2 -3 -5 -3
Wind_Speed
11 12 15 15 16 18 24 22 16 14 15 13 14 13 11 17 17 17 3 3 5 6 8 12 13 13 13 14 15 15 15 15 14 12 12 13 15 16 18 20 21 23 23 24 24 25 26 26 26
10 11 13 16 19 23 22 17 15 10 7 10 13 14 12 14 11 5 3 2 5 6 6 14 15 13 13 13 14 14 13 13 12 12 11 13 15 17 18 20 21 22 23 23 24 25 25 26 26
12 12 14 16 20 23 21 13 5 4 8 9 12 14 13 14 11 3 7 2 3 4 6 14 15 15 13 13 12 12 12 12 12 11 12 13 15 17 18 20 21 21 22 23 24 25 25 26 28
11 12 16 17 18 18 18 5 2 7 10 14 8 17 13 14 14 12 2 7 5 4 5 11 17 14 13 12 12 12 11 11 12 12 13 15 15 17 18 19 20 21 22 23 24 25 25 26 27
12 16 16 18 20 16 12 3 2 12 10 14 12 11 10 11 12 3 5 12 9 11 13 17 13 13 13 13 11 11 10 11 12 13 13 14 15 16 17 19 20 21 22 23 24 24 25 26 27
12 16 15 15 15 12 13 2 13 14 12 12 12 6 10 10 7 7 7 5 2 17 17 14 14 14 12 9 9 10 10 10 11 12 12 13 15 16 17 18 19 20 22 23 23 24 25 25 27
18 14 19 17 14 12 9 8 13 12 20 15 10 10 12 8 14 16 17 13 18 20 13 11 12 9 7 7 8 8 9 10 11 12 13 13 14 15 16 17 17 18 20 22 22 23 23 25 26
16 16 14 13 10 10 5 6 6 7 20 11 12 14 10 10 22 24 23 24 22 14 8 9 10 8 6 7 7 9 9 10 11 12 12 12 13 14 15 16 17 18 19 20 22 22 23 25 26
17 14 11 7 7 6 5 9 10 14 18 9 11 13 13 22 25 24 23 18 13 7 6 6 7 6 7 7 8 10 10 10 10 11 11 12 13 14 14 16 17 18 19 20 22 22 23 24 22
16 15 12 8 4 9 13 15 6 11 8 10 12 11 21 23 25 23 22 19 10 8 7 5 6 7 8 9 10 10 10 10 11 11 12 12 14 16 17 16 17 18 20 20 22 23 23 22 27
14 16 11 6 8 7 10 1 8 8 7 11 8 13 19 23 24 23 23 19 14 7 6 7 7 8 9 10 11 12 12 11 11 12 13 14 16 17 16 17 17 19 20 21 23 24 25 28 28
17 17 10 3 9 8 5 9 9 10 14 12 16 22 21 23 23 21 19 18 16 13 11 8 8 10 11 12 12 12 11 11 12 13 14 15 16 19 19 19 19 19 21 23 25 26 28 27 27
22 15 14 9 7 16 8 10 9 14 12 15 23 23 22 21 17 12 13 13 12 14 11 10 12 12 12 11 11 11 12 13 15 15 15 15 17 21 23 19 20 20 23 24 28 29 29 28 28
14 16 15 14 6 7 6 9 10 11 6 15 21 20 18 16 14 12 12 15 14 11 10 12 12 12 11 10 10 12 14 16 20 20 22 17 21 23 20 16 18 20 25 28 29 31 31 30 30
9 7 6 8 10 7 10 9 10 11 6 19 18 16 12 8 10 12 10 9 9 10 10 10 10 10 10 10 11 13 15 19 21 18 17 15 13 13 15 17 20 24 28 28 29 30 29 30 30
13 10 8 8 9 7 5 7 9 13 13 13 12 10 12 9 9 7 7 7 8 9 8 8 8 8 8 9 11 18 25 19 18 16 16 14 13 14 18 20 23 26 28 29 30 31 32 33 34
15 14 8 6 9 6 13 5 9 9 9 11 14 10 9 10 7 8 9 8 8 7 7 6 6 7 8 10 13 13 12 13 15 15 16 16 16 18 20 22 24 27 28 29 31 32 34 35 35
14 8 3 5 9 5 6 7 8 7 9 10 10 10 8 6 8 9 9 9 9 8 7 6 7 7 7 10 12 13 13 14 15 17 17 17 18 19 21 23 26 28 29 31 33 35 36 36 36
9 8 4 7 7 6 5 6 9 7 4 4 4 4 4 5 8 9 9 9 9 8 7 6 7 8 9 10 12 13 14 16 17 17 18 20 21 22 24 26 28 30 32 33 34 35 37 36 35
12 5 6 10 13 18 5 11 10 8 8 8 6 4 4 5 7 8 9 9 9 8 8 8 9 10 10 12 13 14 15 16 17 18 19 20 22 24 25 28 30 31 33 33 33 33 34 34 34
13 11 9 18 18 18 17 20 11 12 9 7 6 6 6 6 6 8 9 10 11 11 10 9 11 12 13 13 14 15 16 16 17 19 21 23 25 27 29 30 32 33 34 36 33 32 33 36 35
18 19 13 12 17 27 22 25 6 6 8 6 5 4 5 6 7 7 9 11 12 12 12 11 12 13 14 14 15 17 18 18 20 21 23 25 28 31 33 33 33 35 35 33 31 30 32 33 38
19 16 13 17 22 20 11 27 11 5 8 6 3 2 3 4 5 7 9 10 12 12 13 12 13 14 14 15 16 17 19 19 21 24 27 29 31 34 35 35 35 35 33 30 28 28 30 32 35
7 10 15 19 22 28 22 27 14 11 7 5 3 1 1 4 6 7 9 10 11 11 12 12 13 15 15 16 18 20 21 23 26 30 31 33 35 36 36 36 35 32 29 27 27 28 31 34 34
22 18 22 25 25 28 19 25 33 22 19 4 5 4 6 6 7 7 8 8 9 10 11 12 13 14 16 17 19 21 24 27 29 32 33 36 37 37 37 37 34 30 27 26 28 30 33 31 30
26 26 24 24 23 24 17 23 22 19 14 1 9 9 9 8 8 7 6 6 7 8 9 11 12 14 16 18 20 23 26 29 30 32 34 34 36 37 38 36 32 28 25 26 29 28 30 28 28
19 25 20 20 22 25 26 22 28 17 7 6 13 11 10 9 8 6 4 5 6 7 8 10 12 14 17 18 21 23 26 28 30 32 34 35 36 38 38 36 31 26 26 29 28 29 28 26 29
22 11 21 23 23 23 20 22 22 12 5 8 12 11 11 9 6 4 2 3 5 6 7 10 12 15 17 19 20 23 26 28 31 33 35 37 38 39 38 35 30 26 28 28 30 28 25 26 26
15 22 19 18 21 22 20 14 16 16 7 6 9 10 9 7 4 3 0 1 3 5 7 9 13 16 17 20 20 23 26 29 31 33 35 37 38 38 37 34 31 27 29 32 31 27 24 23 24
21 20 9 25 6 13 13 11 13 15 14 5 2 5 5 5 4 3 2 2 3 5 7 11 14 16 19 19 20 24 27 29 30 33 36 38 38 38 36 34 31 29 31 32 29 21 21 22 25
Wind_Direction
303 308 306 313 308 304 294 297 311 302 313 330 336 328 311 309 294 291 346 313 138 132 121 119 109 101 93 85 76 71 63 53 37 16 5 12 18 19 23 28 31 36 35 32 33 31 29 27 25
307 312 310 310 302 294 299 303 300 317 353 347 349 337 334 323 339 21 54 97 135 127 134 116 112 102 95 87 77 67 55 45 29 8 3 14 20 28 33 36 38 37 33 32 30 29 27 25 23
298 300 300 304 301 295 304 315 332 359 341 329 328 334 337 317 318 315 306 191 125 195 134 111 112 107 97 86 74 60 54 43 19 14 20 24 32 39 40 40 36 36 35 33 30 29 27 24 18
298 297 297 296 303 312 309 357 34 337 320 317 335 315 331 312 298 281 9 95 187 190 129 110 114 106 99 84 77 63 48 32 31 37 37 33 34 36 35 33 35 33 35 33 31 31 29 22 20
287 288 294 300 303 307 313 1 27 312 327 320 305 316 315 310 275 22 279 129 136 109 105 113 106 101 95 86 70 52 39 37 43 43 33 32 34 35 34 35 35 33 32 32 32 32 29 26 20
284 285 299 300 307 317 310 302 283 295 325 308 303 328 306 328 16 48 85 84 227 109 110 102 105 103 90 64 51 42 34 32 26 22 23 30 32 31 36 38 36 34 30 30 31 26 25 21 17
275 282 288 301 310 323 314 309 292 297 280 276 338 312 320 351 85 98 103 90 108 110 97 91 95 82 51 26 13 15 16 16 21 20 20 29 27 31 32 32 32 30 26 26 23 19 17 6 8
277 280 294 307 324 335 351 346 340 306 283 331 338 319 324 73 114 115 115 112 106 91 72 76 82 69 25 15 1 360 3 12 21 17 19 16 26 25 24 27 18 14 15 18 12 15 8 3 1
265 283 297 320 331 343 10 294 302 317 284 335 325 348 70 108 115 112 111 100 90 70 56 50 56 21 22 14 18 26 30 32 21 20 14 18 19 14 10 4 6 4 2 6 1 4 359 358 3
265 280 298 306 3 301 295 272 335 328 61 341 339 31 99 104 113 111 112 104 82 71 59 24 17 18 25 30 39 34 26 19 18 17 12 7 356 351 349 357 360 360 358 1 358 355 358 0 351
269 276 286 286 318 335 49 33 338 313 348 360 40 91 101 110 114 111 112 105 95 60 27 38 31 47 53 40 57 56 55 44 32 17 3 354 344 346 352 350 352 352 353 352 353 351 350 346 345
253 251 287 343 298 55 23 336 346 330 333 355 91 109 108 111 116 114 108 102 97 87 73 46 35 55 61 64 60 58 44 33 19 3 357 350 342 339 340 339 344 347 346 344 341 341 343 345 346
230 255 273 301 278 127 53 347 359 356 5 59 100 109 108 110 101 85 90 84 77 85 69 60 68 68 66 61 50 36 31 11 358 349 355 347 339 327 328 340 335 343 340 341 335 334 338 341 340
257 256 253 248 318 19 348 2 35 1 305 72 100 103 102 94 89 81 80 94 88 74 68 73 70 67 58 46 41 25 7 358 335 335 335 358 330 315 332 347 346 342 336 335 334 332 332 333 333
265 280 313 277 68 4 62 3 347 269 36 91 95 90 80 60 71 77 67 59 73 73 77 75 67 57 48 47 21 0 360 357 347 3 351 357 0 353 343 346 339 337 330 335 335 334 334 332 332
245 263 288 309 74 47 333 334 352 239 85 86 84 73 78 54 56 360 355 8 66 74 72 75 58 52 48 37 3 337 330 347 355 14 19 17 14 358 340 337 334 335 334 334 335 333 330 328 326
249 271 295 326 328 61 299 1 301 280 83 88 96 81 74 66 31 345 345 9 35 64 72 58 52 48 41 4 355 357 6 14 18 27 21 14 4 352 344 341 339 337 336 334 332 331 329 327 325
259 318 356 332 311 28 3 1 300 319 88 102 96 97 78 41 358 355 4 14 25 40 50 46 41 45 41 21 9 12 24 28 26 20 16 12 6 358 350 346 341 338 335 332 330 328 327 326 324
297 311 358 8 329 330 332 353 308 319 28 62 62 50 22 16 16 11 2 3 7 13 25 47 48 47 35 33 26 24 17 12 13 16 10 5 360 354 349 344 340 338 334 331 329 328 326 326 325
297 305 318 287 266 243 326 282 311 328 318 310 320 346 13 22 19 6 9 13 17 20 24 29 30 51 43 32 21 16 16 11 8 7 5 1 356 352 348 343 340 337 334 332 329 329 327 326 328
287 281 287 259 257 262 260 259 301 311 326 331 348 343 351 8 13 28 31 33 43 47 45 41 40 35 25 29 29 19 13 11 5 1 357 353 350 346 342 339 337 334 332 330 329 330 329 326 327
265 255 277 285 249 195 244 195 319 327 327 339 330 2 20 42 41 38 55 57 53 48 43 42 41 32 24 23 19 13 7 5 0 356 352 347 344 340 337 335 333 332 332 330 330 331 331 330 326
257 260 277 269 248 261 298 254 317 329 311 310 324 343 31 37 61 71 65 62 55 56 54 49 44 38 31 27 27 18 11 6 359 353 346 342 339 337 335 334 332 331 332 333 333 333 333 331 329
307 293 282 273 265 245 276 262 304 310 294 287 276 285 86 92 91 83 75 71 65 59 54 50 43 36 31 26 18 12 7 359 351 346 343 340 338 337 336 335 334 333 334 334 335 335 335 332 330
249 246 256 246 259 258 299 284 266 292 306 268 177 158 137 122 114 103 97 84 68 60 55 48 40 31 25 19 12 7 360 353 347 347 344 341 340 339 338 337 336 335 336 336 335 335 332 331 331
219 231 256 270 279 280 314 294 299 307 306 115 149 144 140 136 127 116 92 71 63 63 52 43 32 25 19 13 7 0 356 352 349 348 347 345 343 341 340 339 339 338 337 338 335 333 335 335 333
275 253 280 287 290 272 258 282 269 311 345 126 151 150 153 149 141 125 90 65 63 58 42 32 20 13 9 5 0 358 355 354 352 350 349 346 344 343 341 341 340 340 340 337 336 335 334 335 334
261 310 256 252 245 235 272 252 253 350 54 130 155 163 161 159 156 143 97 62 44 38 25 17 8 3 359 356 355 353 354 354 351 349 348 346 344 343 342 341 340 339 339 338 337 334 335 335 337
285 257 269 270 260 256 284 347 331 336 29 121 158 168 172 178 185 184 200 16 12 9 4 1 355 352 353 351 351 352 352 351 349 348 347 345 344 343 343 342 340 337 335 336 333 329 332 334 336
265 267 314 229 350 330 348 5 356 353 352 17 155 182 196 213 223 228 262 293 315 327 339 343 346 347 348 347 347 348 349 347 347 346 346 345 344 344 343 343 341 337 334 332 333 332 334 333 333